Flag for Ecuador Weather past 2 weeks in Quito, Ecuador

Now
50 °F

Passing clouds.


Feels Like: 50 °F
Forecast: 50 / 62 °F
Wind: 1 mph from Northwest

Location: Latacunga Airport

Current Time: Sep 22, 2014 at 5:48:24 AM

Latest Report: Sep 22, 2014 at 5:00 AM


Visibility: N/A

Pressure: 30.42 "Hg

Humidity: 100%

Dew point: 50 °F

Location of QuitoLocation

Historic Weather in Quito — Graph

°F

Quito temperature yesterday

Maximum temperature yesterday: 68 °F (at 1:00 PM)
Minimum temperature yesterday: 50 °F (at 12:00 AM)
Average temperature yesterday: 56 °F

Past Weeks' High & Low Weather Summary

 TemperatureHumidityPressure
High70 °F (Sep 17, 2:00 PM)100% (Sep 9, 10:00 PM)30.51 "Hg (Sep 9, 10:00 PM)
Low36 °F (Sep 17, 4:00 AM)40% (Sep 10, 2:00 PM)30.24 "Hg (Sep 11, 4:00 PM)
Average53 °F83%30.41 "Hg
* Reported Sep 7 4:00 AM — Sep 22 4:00 AM, Quito, Weather by CustomWeather, © 2014

Note: Actual official high and low records may vary slightly from our data, if they occured in-between our weather recording intervals... More about our weather records

Advertising

Quito weather history for previous 24 hours

 ConditionsComfort  
Time TempWeatherWind HumidityBarometerVisibility
4:00 AM
Sep 22
50 °FPartly cloudy.1 mph100%30.39 "HgN/A
3:00 AM48 °FPassing clouds.3 mph100%30.42 "HgN/A
2:00 AM48 °FPassing clouds.2 mph100%30.42 "HgN/A
1:00 AM50 °FPassing clouds.2 mph100%30.45 "HgN/A
12:00 AM50 °FPassing clouds.3 mph100%30.45 "HgN/A
11:00 PM
Sep 21
50 °FPassing clouds.3 mph100%30.48 "HgN/A
10:00 PM50 °FPassing clouds.1 mph100%30.48 "HgN/A
9:00 PM50 °FPassing clouds.3 mph100%30.48 "HgN/A
8:00 PM50 °FScattered showers. Passing clouds.5 mph100%30.45 "HgN/A
7:00 PMN/ALight rain.7 mphN/A30.42 "Hg4 mi
6:00 PM54 °FThunderstorms. Scattered clouds.9 mph94%30.36 "HgN/A
5:00 PM61 °FThundershowers. Scattered clouds.6 mph72%30.33 "HgN/A
4:00 PM66 °FScattered clouds.10 mph52%30.30 "HgN/A
3:00 PM66 °FScattered showers. Scattered clouds.22 mph52%30.33 "HgN/A
2:00 PM66 °FBroken clouds.18 mph60%30.36 "HgN/A
1:00 PM68 °FBroken clouds.18 mph56%30.39 "HgN/A
12:00 PM64 °FBroken clouds.16 mph60%30.45 "HgN/A
11:00 AM64 °FPartly sunny.15 mph60%30.48 "HgN/A
10:00 AM61 °FBroken clouds.7 mph68%30.48 "HgN/A
9:00 AM59 °FBroken clouds.3 mph77%30.51 "HgN/A
8:00 AM54 °FPartly sunny.1 mph94%30.48 "HgN/A
7:00 AM52 °FPartly sunny.No wind100%30.48 "HgN/A
6:00 AM50 °FMostly cloudy.1 mph100%30.45 "HgN/A
5:00 AM50 °FMostly cloudy.2 mph100%30.39 "HgN/A
Weather by CustomWeather, © 2014

See weather overviewHow to use our weather pages